Location: Le Charmel
(49.1124°N, 3.5487°E)
Time: 00:29:21
(UTC+00:00)

Daily predictions for brighter satellites

Satellite Brightness Start Highest point End
(mag) Time Altitude Azimuth Time Altitude Azimuth Time Altitude Azimuth
USA 215 4.3 01:11:30 10° E 01:16:11 41° NE 01:16:11 41° NE
ATLAS 2AS CENTAUR R/B 3.6 01:22:05 46° ENE 01:22:05 46° ENE 01:26:57 10° NE
Resurs 1-4 Rocket 4.0 01:41:22 10° NNE 01:43:37 26° NNE 01:43:37 26° NNE
NOSS 3-1 (A) 4.1 01:55:41 64° N 01:56:42 71° NE 02:05:20 10° SE
SL-16 R/B 3.8 02:10:01 31° NNW 02:10:01 31° NNW 02:13:05 10° NNW
USA 281 3.5 02:01:14 10° NNE 02:07:16 59° E 02:07:16 59° E
Cosmos 2266 Rocket 4.4 02:09:14 59° ENE 02:09:14 59° ENE 02:14:57 10° NNE
ADEOS II 3.5 02:03:37 10° NNE 02:06:36 35° NNE 02:06:36 35° NNE
CZ-2D R/B 3.6 02:08:43 10° N 02:11:32 31° N 02:11:32 31° N
CZ-2C R/B 4.1 02:19:07 30° N 02:19:07 30° N 02:21:49 10° N
IDEFIX/ARIANE 42P 4.1 02:17:14 10° N 02:19:53 29° N 02:19:53 29° N
Cosmos 2237 Rocket 4.3 02:20:05 10° NNW 02:24:45 25° NE 02:29:24 10° E
Lacrosse 5 rocket 3.7 02:31:30 21° ENE 02:31:30 21° ENE 02:32:55 10° ENE
Lacrosse 4 Rocket 4.2 02:33:06 12° N 02:33:06 12° N 02:33:51 10° N
Cosmos 2082 Rocket 4.1 02:32:50 19° NNW 02:32:50 19° NNW 02:36:01 10° N
ATLAS CENTAUR R/B 3.5 02:34:10 62° WNW 02:35:06 67° NNW 02:47:20 10° ENE
FENGYUN 3A 3.9 02:40:24 10° NNE 02:44:55 64° NNE 02:44:55 64° NNE
ATLAS 5 CENTAUR R/B 4.0 02:46:58 13° N 02:47:23 13° N 02:49:33 10° NNE
COSMOS 2428 2.9 02:42:30 10° NNW 02:48:12 69° ENE 02:53:53 10° SE
Timation 1 Rocket 4.3 02:49:01 79° N 02:49:01 79° N 02:54:44 10° NNE
CZ-2C R/B 3.4 02:51:13 10° NNE 02:55:42 40° E 02:56:50 34° SE
ALOS 2.8 02:52:45 10° NNE 02:56:19 53° NNE 02:56:19 53° NNE
USA 215 3.2 02:53:49 10° ESE 03:00:23 82° NNE 03:03:31 34° NW
Cosmos 1842 Rocket 4.4 03:09:35 42° N 03:09:35 42° N 03:12:38 10° N
Meteor 1-26 Rocket 4.5 03:11:34 52° NW 03:11:34 52° NW 03:16:37 10° N
ATLAS 2AS CENTAUR R/B 3.5 03:09:31 37° WNW 03:11:10 42° NNW 03:17:54 10° NE
Cosmos 1655 Rocket 4.0 03:13:15 59° WSW 03:13:49 62° WNW 03:20:10 10° N
Cosmos 1833 4.5 03:14:15 50° NW 03:14:15 50° NW 03:19:38 10° NNE
SL-08 ROCKET BODY 4.4 03:16:48 60° WSW 03:17:20 63° WNW 03:23:23 10° N
Cosmos 2150 Rocket 4.4 03:16:29 40° S 03:18:15 62° ESE 03:23:27 10° NNE
CZ-2C R/B 3.1 03:13:07 10° NNE 03:18:52 78° WNW 03:19:53 60° SW
Meteor 2-12 Rocket 4.5 03:20:51 54° W 03:21:18 55° WNW 03:27:22 10° N
Thor Agena Rocket 3.6 03:16:12 10° N 03:21:24 59° WNW 03:21:27 59° WNW
Resurs 1-4 Rocket 3.9 03:22:16 10° NNW 03:24:40 18° NW 03:24:40 18° NW
Cosmos 1743 Rocket 3.4 03:22:42 10° N 03:27:04 89° E 03:27:40 66° S
Meteor 1-11 Rocket 3.9 03:22:14 10° N 03:28:10 78° ENE 03:34:08 10° SSE
Meteor 1-14 Rocket 4.4 03:22:56 10° NNW 03:28:47 56° W 03:30:00 47° SW
Cosmos 1805 Rocket 3.4 03:25:06 10° N 03:29:28 89° E 03:30:45 46° S
Cosmos 1980 4.1 03:25:40 10° NNW 03:31:19 64° ENE 03:36:55 10° SE
USA 229 DEB 3.8 03:24:09 10° NW 03:31:32 77° SW 03:39:32 10° SSE
USA 229 3.8 03:24:14 10° NW 03:31:38 77° SW 03:39:36 10° SSE
Cosmos 1867 3.9 03:33:23 44° SSW 03:33:23 44° SSW 03:37:37 10° SSE
ATLAS CENTAUR R/B 3.6 03:35:03 10° NNW 03:37:45 19° NNE 03:40:26 10° E
Sich 1 2.8 03:33:56 10° NNW 03:38:17 82° W 03:41:10 21° S
Meteor 2-6 Rocket 4.1 03:38:04 49° WSW 03:39:11 60° WNW 03:44:34 10° N
GP-B 3.0 03:38:17 29° S 03:40:31 88° W 03:44:58 10° N
Cosmos 1484 Rocket 4.2 03:37:27 10° NNE 03:40:49 34° E 03:44:10 10° SSE
Cosmos 1244 Rocket 4.4 03:39:43 19° SSW 03:44:21 79° W 03:50:44 10° N
YAOGAN 6 2.3 03:42:10 10° NNE 03:45:34 89° NNW 03:45:34 89° NNW
BlueWalker 3 3.5 03:48:24 23° S 03:48:24 23° S 03:50:17 10° SSE
NOSS 3-1 (A) 4.5 03:43:24 23° WNW 03:47:33 39° WSW 03:55:30 10° S
ADEOS II 3.6 03:44:18 10° NNW 03:47:29 19° NW 03:47:29 19° NW
Meteor 1-10 Rocket 4.1 03:44:45 23° SSW 03:48:19 80° WNW 03:53:54 10° N
USA 281 3.9 03:46:06 10° NNE 03:51:59 36° NW 03:54:08 29° W
IRS-1D 3.6 03:46:53 10° N 03:52:06 57° WNW 03:54:06 35° SW
CZ-2D R/B 4.1 03:50:40 10° NNW 03:52:49 13° NW 03:52:49 13° NW
Envisat 2.9 03:49:18 10° NNE 03:54:23 76° WNW 03:57:47 21° SSW
TIMED 4.4 03:58:24 35° SW 04:00:10 76° WNW 04:04:32 10° NNE
Cosmos 2297 Rocket 2.7 03:55:23 10° SSW 04:00:55 61° ESE 04:06:30 10° NE
Cosmos 1536 3.0 04:02:32 10° NNW 04:06:15 44° W 04:07:16 35° SW
Lacrosse 5 rocket 2.2 04:06:40 29° WNW 04:07:50 36° NNW 04:11:26 10° NE
Cosmos 1125 Rocket 4.0 04:06:14 31° W 04:07:53 40° WNW 04:12:46 10° NNE
Cosmos 2237 Rocket 2.1 04:03:44 10° NNW 04:09:26 76° WSW 04:15:05 10° SSE
METEOR-M 4.4 04:05:53 10° N 04:10:59 46° WNW 04:13:57 23° SW
Meteor 2-10 4.4 04:09:37 10° N 04:14:55 67° ENE 04:20:00 10° SSE
SL-16 R/B 3.2 04:13:28 10° NNW 04:19:00 49° NE 04:24:31 10° SE
Okean 1 3.1 04:16:05 11° SSW 04:19:44 70° W 04:23:36 10° N
Cosmos 1726 2.1 04:18:57 10° N 04:22:23 71° E 04:25:48 10° SSE
SL-08 R/B 4.5 04:18:26 10° SE 04:23:02 47° ENE 04:27:43 10° N
H-2A R/B 2.9 04:19:36 10° NNE 04:23:06 64° ESE 04:26:33 10° S
ERS-2 3.6 04:21:37 10° NNE 04:24:30 32° E 04:27:22 10° SSE
Cosmos 1975 3.5 04:20:57 10° N 04:24:51 56° ENE 04:28:46 10° SSE
COBE Rocket 4.1 04:22:09 10° N 04:26:50 51° WNW 04:31:36 10° SW
IRS-1C 4.3 04:25:06 10° NNE 04:30:28 76° ESE 04:35:48 10° S
Cosmos 2344 4.2 04:23:15 10° SSW 04:30:35 54° ESE 04:37:45 10° NE
Nadezhda 1 Rocket 4.0 04:25:10 10° NNW 04:31:18 56° W 04:37:18 10° SSW
COSMOS 2428 3.7 04:27:39 10° NW 04:31:55 22° W 04:36:11 10° SSW
CBERS-1 4.2 04:27:35 10° N 04:32:33 52° WNW 04:37:30 10° SW
NOSS 0 Rocket 4.5 04:27:23 10° NW 04:32:59 36° WSW 04:38:34 10° S
ATLAS 5 CENTAUR R/B 4.0 04:30:02 10° NNW 04:33:19 19° NNE 04:37:02 10° ENE
CZ-2C R/B 3.2 04:29:40 10° N 04:33:44 28° WNW 04:36:09 18° WSW
ALOS 4.0 04:31:32 10° NNW 04:34:03 15° WNW 04:34:42 14° WNW
Cosmos 1151 Rocket 3.4 04:31:38 11° SW 04:35:39 41° WNW 04:39:50 10° N
Cosmos 1733 3.0 04:38:20 10° NNW 04:42:03 82° W 04:45:44 10° S
USA 215 3.8 04:37:45 10° SSE 04:43:47 38° SW 04:49:51 10° WNW
Cosmos 1515 Rocket 4.2 04:39:28 10° S 04:43:47 61° E 04:48:07 10° NNE
Cosmos 1666 Rocket 3.9 04:40:34 10° NNW 04:44:42 42° W 04:48:47 10° SSW
Meteor 2-20 Rocket 4.5 04:39:33 10° NNW 04:45:41 57° W 04:51:32 10° S
BREEZE-M DEB (TANK) 4.0 04:42:21 16° WSW 04:45:49 84° SSE 05:05:01 10° E
ARIANE 5 R/B 2.5 04:40:48 10° NNE 04:45:52 89° WNW 04:50:51 10° SSW
Cosmos 1328 Rocket 3.5 04:42:21 10° SSW 04:46:44 64° WNW 04:51:06 10° N
Cosmos 2227 Rocket 2.4 04:42:02 10° SSW 04:47:42 80° ESE 04:53:25 10° NNE
COSMO-SKYMED 1 2.7 04:44:03 10° SSE 04:48:24 78° ENE 04:52:45 10° N
Cosmos 44 Rocket 3.5 04:43:54 11° SW 04:48:49 64° NW 04:54:00 10° NE
Cosmos 1933 Rocket 4.0 04:46:26 10° N 04:50:46 65° E 04:55:03 10° SSE
Cosmos 2263 Rocket 4.3 04:46:05 10° SSE 04:50:54 30° ESE 04:55:43 10° NE
Genesis I 3.6 04:48:17 10° NW 04:51:59 61° NE 04:55:37 10° SE
Meteor 1-27 Rocket 4.2 04:49:47 10° SW 04:55:02 39° WNW 05:00:26 10° N
CZ-2D R/B 3.6 04:51:52 10° NNE 04:56:14 87° ESE 05:00:36 10° SSW
Helios 1A 3.6 04:56:35 10° SSW 05:00:13 31° W 05:03:53 10° NNW
ATLAS 2AS CENTAUR R/B 4.2 04:58:10 10° WNW 05:04:01 25° N 05:09:39 10° NE
IRS-P3 4.1 04:59:18 10° NNE 05:04:38 71° WNW 05:09:55 10° SSW
Cosmos 1238 4.4 05:04:27 10° NNW 05:07:24 44° W 05:10:18 10° SSW
Cosmos 1709 Rocket 4.1 05:01:25 10° SSW 05:07:42 59° WNW 05:13:58 10° N
Cosmos 1805 3.2 05:05:07 10° NNW 05:08:50 59° W 05:12:33 10° S
Cosmos 1140 Rocket 3.5 05:07:38 10° NNW 05:12:54 84° WSW 05:18:09 10° SSE
Cosmos 1633 Rocket 4.0 05:09:27 10° NNW 05:13:11 27° W 05:16:53 10° SW
Cosmos 1484 Rocket 4.0 05:11:55 10° NNW 05:14:39 20° WNW 05:17:24 10° WSW
Meteor 2-4 Rocket 3.8 05:08:48 10° SSW 05:14:41 67° WNW 05:20:28 10° N
Spot 4 Rocket 4.4 05:10:04 10° NNE 05:15:14 74° ESE 05:20:20 10° S
ATLAS CENTAUR R/B 1.0 05:12:39 10° NW 05:16:13 65° SW 05:19:45 10° SSE
H-2A R/B 2.2 05:16:31 10° N 05:21:56 66° WNW 05:27:16 10° SSW
